Regional Weather Roundup
Issued by NWS

Home | Current Version | Previous Version | Graphics & Text | Print | Product List | Glossary On
Versions: 1 2 3 4 5 6 7 8 9 10 11 12 13 14 15 16 17 18 19 20 21 22 23 24 25 26 27 28 29 30 31 32 33 34 35 36 37 38 39 40 41 42 43 44 45 46 47 48 49 50
000
ASUS43 KBIS 301010
RWRND

NORTH DAKOTA REGIONAL WEATHER ROUNDUP
NATIONAL WEATHER SERVICE BISMARCK ND
500 AM CDT SAT MAY 30 2015

NOTE: "FAIR" INDICATES FEW OR NO CLOUDS BELOW 12,000 FEET WITH NO
SIGNIFICANT WEATHER AND/OR OBSTRUCTIONS TO VISIBILITY.


NDZ001>003-009>011-017-301100-
NORTHWEST NORTH DAKOTA

CITY           SKY/WX    TMP DP  RH WIND       PRES   REMARKS
WILLISTON      PTCLDY    43  34  70 NE3       30.31R
MINOT          CLEAR     33  28  81 E6        30.37S
MINOT AFB      CLEAR     33  33  99 E5        30.38R
$$

NDZ018>021-031>035-040>046-301100-
SOUTHWEST NORTH DAKOTA

CITY           SKY/WX    TMP DP  RH WIND       PRES   REMARKS
BISMARCK       CLEAR     35  32  88 E8        30.37R
DICKINSON      PTCLDY    34  29  82 SE6       30.28F
GARRISON         N/A     38  31  76 E10       30.36R
HETTINGER ARPT CLEAR     32  29  88 CALM      30.31S
$$

NDZ004>008-012>016-024-026-027-054-301100-
NORTHEAST NORTH DAKOTA

CITY           SKY/WX    TMP DP  RH WIND       PRES   REMARKS
GRAND FORKS    CLEAR     32  25  75 N9        30.38R
GRND FRKS AFB  CLEAR     29  24  80 N6        30.38R
DEVILS LAKE    CLEAR     32  21  64 NE5       30.38R
$$

NDZ022-023-025-028>030-036>039-047>053-301100-
SOUTHEAST NORTH DAKOTA

CITY           SKY/WX    TMP DP  RH WIND       PRES   REMARKS
FARGO          CLEAR     36  28  73 N13       30.34R
JAMESTOWN      CLEAR     35  27  72 NE13      30.37R
$$



USA.gov is the U.S. government's official web portal to all federal, state and local government web resources and services.